Content
SEND FEEDBACK

Daily
Averages
Monthly
Summary
Mexico

OCUM, QUINTANA ROO


Home > North America > Mexico > Quintana Roo
Elevation: 108 feet     Latitude: 18 33N     Longitude: 088 29W

WEATHER
 
SELECT A DAY
Number of Records: 124,803;   Date Range: 1/1/95 - 10/20/14
 
SHARE

PRINT THIS DATA

[ ← Previous Day ]
WEATHER ALMANAC - JANUARY 12, 2014
[ Next Day → ]
[ °C ]   °F
Weather ElementAverageHighLow
Temperature78.1 °F87 °F (11:50 am)73 °F (11:50 pm)
Dewpoint70.8 °F75.2 °F (11:40 am)64.4 °F (7:00 am)
Humidity77 %95 % (11:50 pm)53 % (11:50 am)
Barometer30.03 in30.09 in (8:50 am)29.98 in (3:42 pm)
Wind Speed7.2 mph11.5 mph (6:45 am)
Weather ElementAverage
Visibility6.3 mi
Wind DirectionENE (55.2 °)

Weather ElementTotal
Precipitation---
Cooling Degree Days15 (Base 65)
Growing Degree Days30 (Base 50)
Averaged from 21 records on January 12, 2014
WEATHER CONDITIONS BREAKOUT
WIND DIRECTION BREAKOUT
WEATHER BY HOUR - JANUARY 12, 2014
[ °C ]   °F
Local TimeTemperatureDewpointHumidityBarometerVisibilityWind DirectionWind SpeedGust SpeedPrecipitationEventsConditions
6:45 AM73.4 °F68.0 °F83 %30.03 in4.0 miNNE (30°)11.5 mphScattered Clouds
7:00 AM73.4 °F64.4 °F73 %30.03 in4.0 miNNE (30°)11.5 mphScattered Clouds
8:40 AM77.0 °F68.0 °F74 %30.08 in7.0 miENE (60°)6.9 mphPartly Cloudy
8:50 AM79.0 °F74.0 °F80 %30.09 in6.0 miEast (100°)6.7 mph
9:40 AM80.6 °F71.6 °F74 %30.07 in7.0 miNNE (30°)6.9 mphScattered Clouds
10:40 AM82.4 °F73.4 °F74 %30.06 in7.0 miNNE (30°)9.2 mphMostly Cloudy
11:40 AM84.2 °F75.2 °F74 %30.05 in7.0 miNNE (30°)6.9 mphMostly Cloudy
11:50 AM87.0 °F72.0 °F53 %30.06 in6.0 miEast (90°)6.7 mphPartly Cloudy
12:40 PM82.4 °F75.2 °F79 %30.01 in7.0 miNNE (30°)6.9 mphOvercast
1:40 PM77.0 °F69.8 °F78 %30.00 in7.0 miENE (60°)6.9 mphOvercast
2:44 PM77.0 °F69.8 °F78 %29.99 in7.0 miEast (90°)6.9 mphOvercast
2:45 PM84.0 °F72.0 °F61 %30.00 in6.0 miEast (90°)6.7 mphRainLight Drizzle
3:42 PM77.0 °F69.8 °F78 %29.98 in7.0 miENE (60°)6.9 mphMostly Cloudy
4:41 PM77.0 °F69.8 °F78 %29.99 in7.0 miENE (60°)6.9 mphMostly Cloudy
5:43 PM77.0 °F69.8 °F78 %30.01 in7.0 miENE (60°)6.9 mphOvercast
5:45 PM78.0 °F71.0 °F72 %30.02 in5.0 miEast (90°)11.2 mphOvercast
6:43 PM75.2 °F69.8 °F83 %30.01 in7.0 miNE (50°)6.9 mphOvercast
7:40 PM75.2 °F69.8 °F83 %30.04 in7.0 miENE (60°)11.5 mphOvercast
8:41 PM75.2 °F69.8 °F83 %30.05 in7.0 miCalmOvercast
8:50 PM75.0 °F71.0 °F85 %30.07 in5.0 miNNE (20°)4.5 mphOvercast
11:50 PM73.0 °F72.0 °F95 %30.04 in5.0 miEast (90°)2.2 mphPartly Cloudy
Hourly data recorded from MMCM, located miles away from Ocum, Quintana Roo







STORIES FROM OUR PARTNERS